QPF
0.00 0.01 0.06 0.07 0.05 0.12 0.08 0.08 0.07 0.05 0.04 0.03 0.05 0.08 0.02 0.00 0.00 0.00 0.00 0.00 0.00 0.00 0.00 0.00 0.00 0.03 0.06 0.03 0.00 0.00 0.01 0.00 0.00 0.00 0.00 0.00 0.00 0.00 0.00 0.00 0.00 0.00 0.00 0.00
0.00 0.00 0.00 0.00 0.00 0.07 0.13 0.14 0.08 0.06 0.08 0.02 0.00 0.02 0.01 0.01 0.00 0.00 0.00 0.00 0.00 0.00 0.00 0.00 0.00 0.00 0.01 0.04 0.04 0.02 0.00 0.00 0.00 0.00 0.00 0.00 0.00 0.00 0.00 0.00 0.00 0.00 0.00 0.00
0.00 0.00 0.00 0.00 0.00 0.00 0.00 0.02 0.01 0.00 0.00 0.00 0.00 0.02 0.00 0.00 0.00 0.00 0.00 0.00 0.00 0.00 0.00 0.00 0.00 0.00 0.00 0.00 0.02 0.02 0.01 0.01 0.00 0.00 0.00 0.00 0.00 0.00 0.00 0.00 0.00 0.00 0.00 0.00
0.00 0.00 0.00 0.00 0.00 0.00 0.00 0.00 0.00 0.00 0.00 0.00 0.01 0.00 0.00 0.00 0.00 0.00 0.00 0.00 0.00 0.00 0.00 0.00 0.00 0.00 0.00 0.00 0.00 0.00 0.01 0.02 0.02 0.02 0.01 0.01 0.00 0.00 0.00 0.00 0.00 0.00 0.00 0.00
0.00 0.00 0.00 0.00 0.00 0.00 0.00 0.00 0.00 0.00 0.00 0.00 0.00 0.00 0.00 0.00 0.00 0.00 0.00 0.00 0.00 0.00 0.00 0.00 0.00 0.00 0.00 0.00 0.00 0.00 0.00 0.00 0.00 0.03 0.03 0.02 0.01 0.00 0.00 0.00 0.00 0.00 0.00 0.00
0.00 0.01 0.00 0.00 0.00 0.00 0.00 0.00 0.00 0.00 0.00 0.00 0.00 0.00 0.00 0.00 0.00 0.00 0.00 0.00 0.00 0.00 0.00 0.00 0.00 0.00 0.00 0.00 0.00 0.00 0.00 0.00 0.00 0.01 0.03 0.05 0.04 0.02 0.00 0.00 0.00 0.00 0.00 0.00
0.00 0.02 0.00 0.00 0.00 0.00 0.00 0.00 0.00 0.00 0.00 0.00 0.00 0.00 0.00 0.00 0.00 0.00 0.00 0.00 0.00 0.00 0.00 0.00 0.00 0.00 0.00 0.00 0.00 0.00 0.00 0.00 0.00 0.00 0.00 0.06 0.05 0.05 0.03 0.01 0.00 0.00 0.00 0.01
0.01 0.01 0.00 0.00 0.00 0.01 0.03 0.01 0.00 0.00 0.00 0.00 0.00 0.00 0.00 0.00 0.00 0.00 0.00 0.00 0.00 0.00 0.00 0.00 0.00 0.00 0.00 0.00 0.00 0.00 0.00 0.00 0.00 0.00 0.00 0.01 0.05 0.06 0.06 0.03 0.01 0.00 0.00 0.00
0.00 0.00 0.01 0.06 0.03 0.02 0.03 0.05 0.04 0.00 0.00 0.00 0.00 0.00 0.00 0.00 0.00 0.00 0.00 0.00 0.00 0.00 0.00 0.00 0.00 0.00 0.00 0.00 0.00 0.00 0.00 0.00 0.00 0.00 0.00 0.02 0.05 0.06 0.09 0.08 0.06 0.03 0.01 0.01
0.03 0.06 0.08 0.14 0.12 0.02 0.04 0.00 0.01 0.02 0.00 0.00 0.00 0.00 0.00 0.00 0.00 0.00 0.00 0.00 0.00 0.00 0.00 0.00 0.00 0.00 0.00 0.00 0.00 0.00 0.00 0.00 0.00 0.00 0.01 0.00 0.02 0.03 0.05 0.06 0.06 0.06 0.07 0.06
0.08 0.08 0.15 0.12 0.38 0.06 0.00 0.00 0.00 0.00 0.00 0.00 0.00 0.00 0.00 0.00 0.00 0.00 0.00 0.00 0.00 0.00 0.00 0.00 0.00 0.00 0.00 0.00 0.00 0.00 0.00 0.00 0.00 0.00 0.01 0.01 0.02 0.05 0.05 0.09 0.11 0.10 0.12 0.14
0.16 0.25 0.20 0.18 0.09 0.06 0.00 0.00 0.00 0.00 0.00 0.00 0.00 0.00 0.00 0.00 0.00 0.00 0.00 0.00 0.00 0.00 0.00 0.00 0.00 0.00 0.00 0.00 0.00 0.00 0.00 0.00 0.00 0.01 0.01 0.03 0.04 0.06 0.09 0.12 0.11 0.13 0.18 0.20
0.12 0.09 0.10 0.03 0.01 0.00 0.00 0.00 0.00 0.00 0.00 0.00 0.00 0.00 0.00 0.00 0.00 0.00 0.00 0.00 0.00 0.00 0.00 0.00 0.00 0.00 0.00 0.01 0.00 0.00 0.00 0.01 0.02 0.04 0.05 0.06 0.09 0.12 0.16 0.19 0.17 0.19 0.23 0.26
0.01 0.03 0.02 0.00 0.00 0.00 0.00 0.00 0.00 0.00 0.00 0.00 0.00 0.00 0.00 0.00 0.00 0.00 0.00 0.01 0.00 0.00 0.00 0.00 0.00 0.02 0.04 0.05 0.03 0.02 0.01 0.01 0.02 0.05 0.10 0.14 0.16 0.20 0.31 0.44 0.44 0.46 0.49 0.49
0.00 0.00 0.00 0.00 0.00 0.00 0.00 0.00 0.00 0.00 0.00 0.00 0.00 0.00 0.00 0.00 0.00 0.01 0.01 0.00 0.00 0.00 0.00 0.00 0.02 0.06 0.08 0.08 0.05 0.02 0.01 0.01 0.01 0.03 0.06 0.08 0.10 0.14 0.18 0.20 0.18 0.19 0.19 0.18
0.00 0.00 0.00 0.00 0.00 0.00 0.00 0.00 0.00 0.00 0.00 0.00 0.00 0.00 0.00 0.00 0.01 0.01 0.01 0.00 0.00 0.01 0.02 0.02 0.04 0.08 0.06 0.03 0.02 0.01 0.01 0.01 0.01 0.02 0.04 0.06 0.08 0.08 0.09 0.09 0.10 0.10 0.09 0.10
0.00 0.00 0.00 0.00 0.00 0.00 0.00 0.00 0.00 0.00 0.00 0.01 0.01 0.01 0.01 0.00 0.00 0.01 0.01 0.01 0.00 0.01 0.02 0.02 0.04 0.04 0.03 0.02 0.01 0.01 0.01 0.01 0.01 0.01 0.02 0.03 0.03 0.04 0.05 0.05 0.06 0.06 0.08 0.08
0.00 0.00 0.00 0.01 0.01 0.00 0.00 0.00 0.00 0.00 0.01 0.01 0.01 0.00 0.00 0.01 0.01 0.01 0.01 0.01 0.00 0.00 0.01 0.02 0.03 0.02 0.02 0.01 0.01 0.01 0.01 0.01 0.00 0.01 0.01 0.01 0.01 0.01 0.01 0.01 0.01 0.01 0.02 0.02
0.00 0.00 0.00 0.00 0.00 0.00 0.00 0.00 0.01 0.01 0.01 0.01 0.01 0.01 0.01 0.01 0.01 0.01 0.01 0.00 0.00 0.00 0.00 0.00 0.00 0.00 0.00 0.00 0.00 0.00 0.00 0.00 0.00 0.00 0.00 0.00 0.00 0.00 0.00 0.00 0.00 0.00 0.00 0.00
0.00 0.00 0.00 0.00 0.00 0.00 0.00 0.01 0.01 0.01 0.01 0.01 0.01 0.01 0.01 0.02 0.02 0.00 0.00 0.00 0.00 0.00 0.00 0.00 0.00 0.00 0.00 0.00 0.00 0.00 0.00 0.00 0.00 0.00 0.00 0.00 0.00 0.00 0.00 0.00 0.00 0.00 0.00 0.00
0.00 0.00 0.00 0.00 0.00 0.01 0.01 0.01 0.01 0.01 0.01 0.01 0.01 0.01 0.01 0.00 0.00 0.00 0.00 0.00 0.00 0.00 0.00 0.00 0.00 0.00 0.00 0.00 0.00 0.00 0.00 0.00 0.00 0.00 0.00 0.00 0.00 0.00 0.00 0.00 0.00 0.00 0.00 0.00
0.00 0.00 0.00 0.00 0.00 0.01 0.01 0.01 0.01 0.01 0.01 0.01 0.01 0.01 0.01 0.00 0.00 0.00 0.00 0.00 0.00 0.00 0.00 0.00 0.00 0.00 0.00 0.00 0.00 0.00 0.00 0.00 0.00 0.00 0.00 0.00 0.00 0.00 0.00 0.00 0.00 0.00 0.00 0.00
0.00 0.00 0.00 0.00 0.00 0.01 0.01 0.01 0.01 0.00 0.01 0.01 0.00 0.00 0.00 0.00 0.00 0.00 0.00 0.00 0.00 0.00 0.00 0.00 0.00 0.00 0.00 0.00 0.00 0.00 0.00 0.00 0.00 0.00 0.00 0.00 0.00 0.00 0.00 0.00 0.00 0.00 0.00 0.00
0.01 0.01 0.01 0.01 0.01 0.01 0.01 0.01 0.00 0.00 0.00 0.00 0.00 0.00 0.00 0.00 0.00 0.00 0.00 0.00 0.00 0.00 0.00 0.00 0.00 0.00 0.00 0.00 0.00 0.00 0.00 0.00 0.00 0.00 0.00 0.00 0.00 0.00 0.00 0.00 0.00 0.00 0.00 0.00
0.01 0.01 0.01 0.01 0.00 0.00 0.00 0.00 0.00 0.00 0.00 0.00 0.00 0.00 0.00 0.00 0.00 0.00 0.00 0.00 0.00 0.00 0.00 0.00 0.00 0.00 0.00 0.00 0.00 0.00 0.00 0.00 0.00 0.00 0.00 0.00 0.00 0.00 0.00 0.00 0.00 0.00 0.00 0.00
0.00 0.00 0.01 0.01 0.00 0.00 0.00 0.00 0.00 0.00 0.00 0.00 0.00 0.00 0.00 0.00 0.00 0.00 0.00 0.00 0.00 0.00 0.00 0.00 0.00 0.00 0.00 0.00 0.00 0.00 0.00 0.00 0.00 0.00 0.00 0.00 0.00 0.00 0.00 0.00 0.00 0.00 0.00 0.00
0.01 0.01 0.00 0.00 0.00 0.00 0.00 0.00 0.00 0.00 0.00 0.00 0.00 0.00 0.00 0.00 0.00 0.00 0.00 0.00 0.00 0.00 0.00 0.00 0.00 0.00 0.00 0.00 0.00 0.00 0.00 0.00 0.00 0.00 0.00 0.00 0.00 0.00 0.00 0.00 0.00 0.00 0.00 0.00
MSLP
1006.82 1006.45 1005.83 1005.64 1005.40 1005.87 1006.24 1006.32 1005.60 1004.74 1004.20 1003.06 1003.27 1002.70 1002.47 1001.55 1000.67 1000.18 1000.59 1000.73 1000.78 1001.35 1001.82 1001.87 1002.21 1002.36 1002.55 1002.24 1001.82 1001.52 1002.15 1002.34 1002.56 1003.21 1003.84 1004.40 1004.90 1005.23 1005.74 1006.17 1006.32 1006.68 1007.16 1007.48
1006.75 1006.13 1005.30 1004.69 1004.43 1004.54 1005.10 1005.22 1004.82 1004.11 1003.78 1003.36 1002.31 1002.39 1002.42 1002.23 1001.35 1001.19 1001.45 1001.62 1002.03 1002.23 1002.77 1003.28 1003.92 1003.96 1003.64 1003.16 1003.05 1002.62 1001.86 1001.52 1001.80 1002.19 1002.61 1003.00 1003.48 1004.10 1004.62 1004.87 1005.25 1005.71 1005.79 1006.19
1006.97 1006.09 1005.04 1004.14 1002.85 1002.71 1003.01 1003.27 1003.63 1002.71 1001.96 1001.75 1001.96 1002.46 1002.10 1002.23 1002.18 1002.29 1002.32 1002.95 1003.53 1003.62 1004.00 1004.44 1005.00 1005.18 1004.76 1004.16 1003.45 1002.94 1002.35 1002.21 1001.82 1001.63 1001.74 1001.76 1002.29 1003.00 1003.22 1003.47 1004.06 1004.31 1004.81 1005.18
1007.74 1006.86 1005.01 1003.15 1001.74 1001.24 1001.40 1001.32 1001.23 1001.25 1001.44 1002.06 1002.25 1002.39 1002.85 1002.77 1002.65 1002.97 1003.55 1003.97 1004.44 1005.07 1005.54 1006.02 1005.95 1005.45 1005.51 1005.04 1004.73 1004.20 1003.91 1003.51 1003.06 1002.18 1001.76 1001.18 1001.47 1001.67 1001.85 1002.34 1002.77 1003.12 1003.55 1004.07
1008.72 1007.63 1005.41 1002.86 1000.96 1001.22 1000.94 1001.36 1000.75 1000.64 1001.28 1001.99 1002.67 1003.03 1003.45 1003.21 1003.32 1004.23 1004.75 1005.28 1005.82 1006.66 1007.30 1007.45 1007.46 1007.14 1006.18 1005.38 1005.17 1005.07 1004.80 1004.35 1003.67 1003.51 1002.99 1001.87 1000.87 1000.54 1000.66 1001.32 1001.76 1002.02 1002.45 1003.09
1008.96 1007.90 1005.79 1003.64 1001.93 1000.96 1000.83 1002.14 1002.28 1001.90 1002.35 1002.85 1003.30 1004.31 1005.12 1004.88 1005.06 1005.80 1006.08 1006.40 1007.02 1007.85 1008.23 1008.53 1008.85 1008.55 1007.81 1007.21 1006.61 1005.96 1005.51 1005.08 1004.68 1004.38 1003.94 1003.03 1001.76 1000.40 999.85 1000.28 1000.57 1001.16 1001.68 1002.05
1008.92 1008.31 1006.24 1003.63 1002.60 1001.68 1002.37 1004.74 1003.75 1003.56 1003.98 1004.25 1004.93 1005.70 1006.07 1005.90 1006.40 1007.10 1007.75 1008.26 1008.72 1009.18 1009.54 1010.12 1010.09 1009.78 1009.31 1009.02 1008.62 1007.99 1007.10 1006.33 1005.55 1004.99 1004.57 1003.89 1002.55 1001.32 1000.00 999.57 999.97 1000.64 1001.39 1002.25
1008.61 1008.24 1006.98 1004.45 1003.57 1003.77 1005.01 1004.84 1004.84 1005.00 1005.51 1005.90 1006.19 1006.63 1006.90 1007.49 1008.14 1008.79 1009.40 1009.81 1010.21 1010.41 1010.69 1011.14 1011.12 1010.90 1010.54 1010.10 1009.68 1008.82 1008.09 1007.53 1006.86 1005.84 1005.14 1004.74 1003.87 1002.55 1001.72 1000.74 1000.05 1001.38 1002.36 1003.37
1007.15 1006.88 1006.35 1005.73 1004.99 1005.48 1005.59 1005.92 1006.24 1006.64 1007.03 1007.25 1007.63 1008.02 1008.59 1009.50 1010.07 1010.83 1011.36 1011.65 1011.73 1011.79 1012.16 1012.39 1012.32 1011.95 1011.53 1011.05 1010.32 1009.50 1008.95 1008.46 1008.16 1007.51 1006.18 1005.35 1005.07 1004.44 1003.50 1003.31 1002.74 1002.70 1003.17 1004.15
1006.93 1007.48 1007.46 1007.57 1007.59 1007.23 1007.42 1006.96 1007.75 1008.67 1008.67 1009.00 1009.56 1010.10 1010.75 1011.35 1011.97 1012.45 1012.85 1012.87 1013.04 1013.16 1013.23 1013.17 1012.92 1012.64 1012.39 1011.65 1010.88 1010.20 1009.92 1009.60 1009.33 1009.07 1008.33 1006.98 1005.95 1005.91 1005.79 1005.25 1005.18 1004.94 1004.78 1005.35
1008.21 1008.53 1008.78 1009.45 1009.24 1009.11 1008.73 1008.48 1009.20 1009.90 1010.36 1010.82 1011.31 1012.02 1012.58 1013.15 1013.53 1013.97 1014.23 1014.28 1014.31 1014.30 1014.30 1014.25 1014.01 1013.61 1013.06 1012.37 1011.61 1011.01 1010.86 1010.61 1010.47 1010.37 1010.18 1009.41 1008.39 1007.37 1007.12 1007.63 1007.22 1007.07 1007.20 1007.02
1010.11 1010.07 1009.29 1010.60 1010.54 1009.91 1010.02 1010.78 1010.98 1011.37 1012.34 1012.90 1013.14 1013.86 1014.37 1014.93 1015.34 1015.59 1015.79 1015.89 1015.85 1015.91 1015.83 1015.52 1015.03 1014.51 1014.00 1013.37 1012.74 1012.20 1011.85 1011.56 1011.55 1011.36 1011.52 1011.22 1010.85 1009.96 1009.07 1008.60 1008.76 1009.45 1008.56 1010.01
1011.62 1010.99 1011.25 1011.66 1011.83 1011.92 1011.78 1012.14 1012.76 1013.42 1014.12 1014.75 1015.32 1015.57 1015.88 1016.36 1016.66 1016.93 1017.04 1017.06 1017.03 1017.04 1016.72 1016.38 1016.06 1015.34 1014.78 1014.13 1013.61 1013.23 1012.92 1012.65 1012.71 1012.41 1012.67 1012.68 1012.35 1012.00 1011.24 1010.95 1010.00 1011.37 1011.12 1009.60
1012.42 1012.09 1012.30 1012.67 1013.22 1013.49 1013.40 1013.59 1014.31 1015.31 1016.04 1016.42 1016.76 1017.14 1017.47 1017.87 1018.26 1018.47 1018.60 1018.71 1018.60 1018.31 1017.85 1017.42 1016.97 1016.29 1015.55 1015.09 1014.72 1014.39 1014.16 1013.68 1013.50 1013.71 1014.13 1014.05 1014.00 1013.78 1013.24 1012.51 1012.05 1013.34 1013.52 1012.94
1013.45 1013.27 1013.45 1013.92 1014.35 1014.81 1015.06 1015.37 1015.81 1016.66 1017.30 1017.57 1017.93 1018.22 1018.75 1019.25 1019.65 1019.98 1020.02 1019.86 1019.59 1019.27 1019.00 1018.51 1017.83 1017.37 1016.97 1016.32 1015.84 1015.57 1015.34 1014.65 1014.96 1015.02 1015.26 1015.43 1015.59 1014.88 1014.93 1014.36 1014.87 1014.87 1015.47 1015.39
1014.85 1014.89 1014.97 1015.30 1016.07 1016.54 1016.79 1017.06 1017.42 1018.05 1018.54 1018.98 1019.24 1019.67 1020.20 1020.65 1021.00 1021.24 1021.35 1021.18 1020.77 1020.60 1020.31 1019.63 1018.98 1018.65 1018.01 1017.58 1017.21 1016.75 1016.50 1016.15 1016.24 1016.38 1016.61 1016.88 1016.97 1016.65 1016.79 1016.68 1016.84 1017.38 1017.53 1017.59
1016.12 1016.23 1016.38 1016.46 1016.94 1017.56 1017.97 1018.36 1018.72 1019.31 1019.82 1020.18 1020.53 1020.91 1021.29 1021.63 1021.94 1022.30 1022.48 1022.49 1022.37 1022.14 1021.52 1020.64 1020.17 1019.62 1019.04 1018.64 1018.40 1018.30 1017.74 1017.99 1017.87 1017.76 1018.01 1018.09 1018.07 1018.12 1018.37 1018.66 1018.89 1018.99 1019.14 1019.04
1017.89 1018.07 1018.04 1018.05 1018.30 1018.75 1019.18 1019.55 1019.97 1020.46 1020.89 1021.30 1021.60 1022.00 1022.46 1022.80 1023.11 1023.32 1023.54 1023.57 1023.30 1022.85 1022.46 1021.84 1021.35 1020.73 1020.15 1019.90 1019.61 1019.46 1019.04 1019.19 1019.23 1019.49 1019.75 1019.67 1019.69 1019.79 1019.96 1020.18 1020.44 1020.90 1020.78 1020.99
1019.33 1019.41 1019.46 1019.57 1019.74 1019.92 1020.28 1020.70 1021.10 1021.49 1021.82 1022.08 1022.42 1022.91 1023.38 1023.79 1024.15 1024.29 1024.31 1024.16 1024.09 1023.95 1023.78 1023.06 1022.40 1021.72 1021.33 1021.03 1020.71 1020.49 1020.28 1020.31 1020.50 1021.00 1021.17 1021.14 1021.08 1021.29 1021.63 1021.92 1022.13 1022.13 1022.27 1022.60
1020.74 1020.82 1020.88 1020.93 1021.05 1021.21 1021.58 1022.01 1022.30 1022.58 1022.91 1023.04 1023.29 1023.70 1024.14 1024.49 1024.74 1025.01 1025.08 1025.09 1025.17 1024.99 1024.68 1024.05 1023.47 1022.93 1022.54 1022.37 1022.13 1021.91 1021.74 1021.78 1021.96 1022.35 1022.42 1022.58 1022.64 1022.82 1023.11 1023.28 1023.37 1023.38 1023.55 1023.84
1021.96 1021.95 1021.95 1022.10 1022.32 1022.54 1022.77 1023.04 1023.24 1023.51 1023.83 1024.02 1024.16 1024.59 1024.99 1025.36 1025.49 1025.44 1025.60 1025.81 1026.00 1025.68 1025.50 1025.06 1024.56 1024.10 1023.70 1023.58 1023.48 1023.37 1023.27 1023.18 1023.30 1023.53 1023.85 1023.93 1024.14 1024.33 1024.45 1024.64 1024.72 1024.74 1024.80 1024.81
1022.64 1022.82 1023.02 1023.21 1023.39 1023.63 1023.84 1023.95 1024.09 1024.23 1024.46 1024.65 1024.73 1025.05 1025.43 1025.87 1026.09 1026.28 1026.35 1026.66 1026.61 1026.35 1026.28 1025.95 1025.57 1025.24 1024.96 1024.78 1024.72 1024.67 1024.64 1024.61 1024.58 1024.74 1024.87 1025.28 1025.59 1025.58 1025.68 1025.97 1026.17 1025.88 1025.78 1025.93
1023.24 1023.47 1023.71 1023.94 1024.16 1024.36 1024.52 1024.66 1024.85 1025.03 1025.23 1025.35 1025.45 1025.65 1025.88 1026.20 1026.39 1026.57 1026.78 1027.13 1027.04 1027.08 1026.94 1026.79 1026.48 1026.22 1026.01 1025.88 1025.84 1025.81 1025.75 1025.74 1025.78 1025.81 1025.97 1026.18 1026.32 1026.45 1026.65 1026.85 1026.89 1026.67 1026.67 1026.69
1023.56 1023.81 1024.04 1024.28 1024.47 1024.64 1024.83 1025.10 1025.24 1025.41 1025.55 1025.81 1026.02 1026.28 1026.23 1026.60 1026.93 1027.08 1027.24 1027.49 1027.64 1027.61 1027.60 1027.47 1027.24 1027.04 1026.87 1026.74 1026.61 1026.64 1026.72 1026.76 1026.71 1026.67 1026.65 1026.74 1026.96 1027.12 1027.35 1027.48 1027.48 1027.42 1027.42 1027.53
1023.79 1023.99 1024.09 1024.27 1024.44 1024.64 1024.80 1025.01 1025.23 1025.49 1025.79 1026.14 1026.44 1026.57 1026.84 1027.05 1027.22 1027.61 1027.62 1027.70 1027.84 1028.04 1028.04 1027.98 1027.89 1027.73 1027.50 1027.31 1027.26 1027.33 1027.38 1027.39 1027.43 1027.50 1027.48 1027.47 1027.55 1027.70 1027.81 1027.89 1027.92 1027.91 1028.00 1028.16
1024.10 1024.29 1024.39 1024.45 1024.62 1024.73 1024.83 1025.04 1025.49 1025.89 1026.32 1026.78 1027.13 1027.38 1027.38 1027.54 1027.83 1027.99 1028.08 1028.16 1028.24 1028.34 1028.47 1028.48 1028.37 1028.19 1028.13 1028.09 1028.10 1028.18 1028.28 1028.24 1028.26 1028.23 1028.24 1028.21 1028.26 1028.30 1028.37 1028.49 1028.58 1028.40 1028.37 1028.35
1024.57 1024.70 1024.88 1025.17 1025.37 1025.55 1025.76 1026.00 1026.36 1026.95 1027.02 1027.19 1027.60 1027.79 1027.88 1028.09 1028.21 1028.34 1028.44 1028.54 1028.63 1028.66 1028.68 1028.71 1028.71 1028.58 1028.50 1028.56 1028.62 1028.81 1028.57 1028.41 1028.43 1028.52 1028.29 1028.47 1028.48 1028.30 1028.49 1028.66 1028.58 1028.53 1028.41 1028.26
Thickness
5531 5541 5546 5538 5550 5540 5544 5546 5552 5572 5571 5591 5586 5589 5593 5607 5619 5629 5630 5637 5643 5641 5641 5643 5641 5642 5643 5650 5656 5657 5651 5653 5655 5651 5647 5642 5639 5636 5632 5630 5629 5627 5623 5621
5529 5542 5550 5551 5556 5552 5545 5547 5551 5563 5565 5580 5593 5594 5590 5592 5609 5616 5620 5623 5625 5628 5627 5623 5617 5620 5626 5631 5633 5640 5650 5653 5653 5649 5646 5644 5641 5636 5631 5631 5628 5624 5625 5622
5519 5536 5543 5537 5557 5565 5564 5557 5553 5559 5578 5591 5589 5584 5589 5591 5598 5602 5609 5610 5609 5612 5610 5607 5603 5599 5604 5614 5622 5625 5634 5637 5641 5644 5643 5644 5639 5633 5633 5632 5627 5626 5623 5620
5495 5514 5522 5553 5572 5579 5572 5577 5581 5584 5582 5580 5579 5581 5581 5584 5586 5595 5597 5596 5595 5592 5588 5584 5585 5590 5591 5597 5601 5605 5607 5615 5620 5629 5633 5640 5637 5636 5636 5632 5627 5625 5622 5618
5479 5495 5524 5554 5575 5566 5568 5569 5583 5586 5581 5580 5576 5572 5571 5577 5579 5579 5581 5580 5577 5568 5563 5562 5563 5567 5577 5585 5586 5588 5591 5597 5606 5607 5610 5623 5631 5637 5637 5630 5625 5624 5622 5617
5467 5490 5492 5537 5559 5569 5574 5546 5561 5570 5565 5563 5564 5549 5546 5558 5563 5561 5563 5565 5557 5549 5546 5544 5543 5546 5553 5559 5564 5570 5574 5578 5582 5586 5589 5597 5612 5625 5631 5627 5625 5621 5617 5616
5467 5470 5494 5537 5546 5558 5542 5525 5543 5550 5547 5550 5545 5543 5540 5549 5548 5543 5540 5537 5534 5529 5525 5521 5523 5526 5530 5532 5534 5541 5550 5556 5561 5564 5568 5576 5588 5603 5616 5621 5618 5612 5601 5589
5457 5458 5472 5524 5537 5529 5519 5525 5532 5530 5529 5528 5532 5533 5532 5527 5522 5516 5511 5509 5509 5507 5506 5502 5504 5505 5509 5511 5514 5523 5529 5534 5538 5544 5548 5551 5561 5575 5582 5593 5597 5581 5572 5563
5482 5483 5500 5504 5513 5509 5511 5511 5514 5513 5513 5515 5513 5512 5510 5500 5495 5488 5484 5483 5485 5488 5485 5483 5483 5487 5490 5493 5499 5507 5510 5512 5513 5517 5526 5531 5533 5538 5550 5552 5559 5556 5554 5544
5489 5481 5482 5481 5483 5493 5492 5500 5496 5490 5493 5493 5487 5482 5480 5474 5471 5468 5465 5467 5467 5467 5467 5467 5469 5472 5473 5479 5484 5490 5489 5490 5490 5489 5494 5504 5512 5511 5510 5515 5520 5522 5523 5519
5475 5470 5468 5459 5462 5469 5476 5481 5481 5475 5469 5466 5464 5459 5457 5451 5451 5449 5447 5448 5448 5448 5448 5448 5450 5452 5455 5459 5464 5469 5466 5466 5465 5464 5464 5469 5475 5483 5484 5478 5482 5485 5484 5486
5454 5446 5459 5446 5452 5459 5459 5454 5452 5455 5443 5438 5441 5437 5434 5429 5428 5427 5425 5424 5424 5423 5424 5426 5430 5433 5435 5437 5440 5442 5441 5440 5437 5438 5435 5436 5438 5443 5450 5454 5454 5449 5456 5445
5418 5435 5432 5429 5430 5433 5437 5435 5431 5423 5421 5416 5413 5414 5413 5408 5408 5407 5406 5406 5405 5404 5407 5408 5409 5414 5415 5416 5415 5415 5412 5409 5405 5406 5404 5405 5407 5410 5415 5418 5428 5418 5419 5432
5417 5421 5420 5418 5413 5412 5415 5418 5411 5402 5397 5396 5395 5391 5389 5387 5384 5383 5382 5381 5381 5382 5384 5387 5388 5390 5394 5393 5390 5389 5386 5387 5385 5379 5374 5374 5376 5379 5385 5391 5394 5377 5375 5381
5406 5412 5409 5403 5398 5394 5394 5396 5391 5385 5381 5380 5378 5376 5372 5367 5363 5360 5359 5360 5361 5362 5361 5364 5367 5367 5367 5368 5368 5368 5368 5370 5364 5360 5356 5353 5351 5356 5357 5361 5357 5358 5348 5347
5392 5390 5391 5388 5378 5374 5373 5373 5370 5365 5362 5359 5357 5354 5349 5344 5340 5337 5335 5335 5337 5337 5337 5340 5343 5343 5345 5345 5346 5346 5346 5348 5346 5343 5337 5333 5331 5332 5329 5329 5326 5320 5318 5317
5371 5370 5371 5373 5366 5359 5355 5353 5351 5345 5340 5337 5335 5332 5328 5324 5320 5316 5312 5311 5309 5309 5313 5318 5319 5321 5324 5325 5324 5324 5327 5323 5322 5321 5317 5315 5313 5311 5307 5303 5300 5299 5297 5296
5349 5346 5348 5349 5348 5343 5338 5335 5331 5326 5321 5317 5314 5309 5303 5299 5296 5293 5290 5288 5288 5290 5291 5295 5297 5300 5303 5303 5303 5303 5305 5301 5300 5296 5292 5291 5290 5288 5285 5282 5277 5269 5269 5266
5330 5329 5328 5327 5325 5323 5319 5315 5311 5307 5303 5299 5295 5289 5283 5278 5273 5271 5270 5270 5269 5269 5269 5273 5277 5280 5281 5281 5283 5283 5283 5281 5277 5271 5268 5268 5267 5264 5259 5255 5251 5250 5247 5241
5310 5308 5307 5305 5304 5301 5296 5292 5288 5284 5280 5278 5275 5271 5264 5260 5258 5254 5252 5250 5248 5249 5250 5253 5256 5258 5259 5259 5258 5258 5258 5257 5254 5248 5246 5244 5242 5239 5235 5232 5230 5227 5223 5218
5287 5287 5287 5285 5282 5279 5276 5273 5270 5265 5260 5257 5254 5249 5244 5240 5237 5238 5235 5231 5229 5230 5230 5232 5234 5235 5237 5236 5235 5234 5233 5233 5230 5227 5223 5221 5217 5214 5211 5206 5204 5202 5199 5197
5272 5271 5267 5265 5263 5260 5257 5254 5251 5248 5244 5240 5239 5235 5229 5224 5220 5217 5216 5212 5211 5211 5210 5211 5213 5213 5213 5213 5212 5211 5210 5209 5207 5204 5202 5197 5192 5190 5187 5183 5179 5178 5176 5172
5260 5257 5252 5248 5245 5241 5238 5234 5230 5227 5223 5221 5220 5217 5214 5210 5207 5203 5200 5196 5195 5193 5193 5192 5193 5193 5193 5192 5191 5190 5189 5187 5185 5183 5179 5174 5171 5168 5164 5161 5158 5154 5150 5148
5249 5244 5239 5234 5230 5227 5223 5218 5215 5212 5208 5206 5202 5198 5199 5193 5189 5187 5184 5180 5177 5175 5174 5175 5175 5175 5174 5173 5173 5170 5167 5165 5163 5161 5159 5155 5151 5147 5142 5136 5133 5131 5128 5124
5235 5232 5229 5225 5221 5216 5213 5209 5205 5201 5196 5191 5187 5183 5180 5176 5171 5168 5167 5165 5163 5160 5157 5157 5156 5156 5155 5155 5153 5151 5148 5145 5142 5139 5136 5132 5128 5123 5120 5117 5113 5110 5107 5103
5224 5219 5214 5211 5206 5202 5199 5196 5188 5182 5176 5169 5165 5160 5158 5156 5154 5151 5149 5147 5145 5143 5141 5139 5138 5137 5135 5133 5131 5127 5124 5121 5118 5116 5114 5111 5109 5105 5102 5099 5096 5093 5089 5085
5205 5200 5195 5188 5183 5178 5173 5169 5163 5155 5151 5144 5141 5140 5137 5134 5132 5130 5127 5124 5123 5122 5121 5120 5119 5118 5115 5113 5111 5110 5108 5105 5104 5101 5099 5096 5094 5090 5087 5084 5080 5076 5072 5068